Location: Newark
(47.0167°N, 8.3000°E)
Time: 04:02:48
(UTC+00:00)

Envisat - Visible Passes

Search period start: 19 September 2019 00:00
Search period end: 29 September 2019 00:00
Orbit: 764 x 766 km, 98.1° (Epoch: 18 September)

Date Brightness Start Highest point End Pass type
(mag) Time Alt. Az. Time Alt. Az. Time Alt. Az.
19 Sep 5.0 18:22:41 10° SSW 18:27:11 32° W 18:31:43 10° NNW visible
21 Sep 5.8 18:49:22 10° SW 18:52:57 19° W 18:56:33 10° NW visible
22 Sep 4.6 18:11:08 10° SSW 18:15:51 39° W 18:20:38 10° NNW visible
23 Sep 6.3 19:17:25 10° WSW 19:18:48 11° W 19:20:13 10° WNW visible
24 Sep 5.5 18:37:32 10° SW 18:41:35 24° W 18:45:38 10° NW visible
25 Sep 4.1 17:59:38 10° S 18:04:32 48° W 18:09:29 10° NNW visible
26 Sep 6.0 19:04:45 10° WSW 19:07:23 14° W 19:10:02 10° NW visible
27 Sep 5.1 18:25:50 10° SSW 18:30:13 29° W 18:34:38 10° NW visible
28 Sep 3.7 17:48:14 10° S 17:53:15 61° W 17:58:18 10° NNW visible
